Location: Aula-Vintri
(58.3875°N, 22.4322°E)
Time: 19:54:28
(UTC+00:00)

Cosmos 2173 Rocket - Pass Details

Date: 13 October 2019
Orbit: 944 x 1001 km, 83.0° (Epoch: 16 November)

Event Time Altitude Azimuth Distance (km) Brightness Sun altitude
Rises 17:29:32 0° 346° (NNW) 3,729 7.4 -16.2°
Reaches altitude 10° 17:32:11 10° 352° (N) 2,770 6.6 -16.5°
Maximum altitude 17:38:23 53° 69° (ENE) 1,205 4.2 -17.3°
Enters shadow 17:42:17 23° 136° (SE) 1,972 5.1 -17.8°
